Location: Plum
(40.5000°N, 79.7500°W)
Time: 16:25:11
(UTC-04:00)

MOZ.5/SAFIR/RUBIN 5/SL-8 - Visible Passes

Search period start: 18 August 2017 00:00
Search period end: 28 August 2017 00:00
Orbit: 678 x 706 km, 97.9° (Epoch: 17 August)

Date Brightness Start Highest point End Pass type
(mag) Time Alt. Az. Time Alt. Az. Time Alt. Az.
18 Aug 6.6 02:42:51 10° E 02:44:32 12° ENE 02:46:14 10° NE visible
18 Aug 3.6 04:20:38 59° SSW 04:21:27 76° WSW 04:26:08 10° NNW visible
19 Aug 5.6 03:22:13 23° E 03:23:47 28° ENE 03:27:46 10° N visible
19 Aug 4.6 05:00:54 28° WSW 05:01:16 29° W 05:05:20 10° NW visible
20 Aug 3.9 04:02:29 57° SE 04:03:16 71° ENE 04:07:57 10° N visible
20 Aug 5.7 05:41:10 11° W 05:41:20 11° W 05:42:38 10° WNW visible
21 Aug 6.1 03:04:05 16° E 03:05:46 19° ENE 03:09:03 10° NNE visible
21 Aug 4.0 04:42:45 43° WSW 04:43:00 44° W 04:47:29 10° NNW visible
22 Aug 4.7 03:44:21 41° ESE 03:45:09 46° ENE 03:49:38 10° N visible
22 Aug 5.3 05:23:02 17° W 05:23:02 17° W 05:26:03 10° NW visible
23 Aug 6.5 02:45:56 11° E 02:47:48 13° ENE 02:49:56 10° NE visible
23 Aug 3.6 04:24:37 68° WSW 04:24:46 69° WSW 04:29:28 10° NNW visible
24 Aug 5.4 03:26:12 28° E 03:27:04 30° ENE 03:31:10 10° N visible
24 Aug 4.8 05:04:53 26° W 05:04:53 26° W 05:08:34 10° NW visible
25 Aug 3.8 04:06:28 77° E 04:06:35 78° ENE 04:11:18 10° N visible
26 Aug 6.0 03:08:04 20° E 03:09:03 21° ENE 03:12:32 10° NNE visible
26 Aug 4.3 04:46:45 39° W 04:46:45 39° W 04:50:46 10° NNW visible
27 Aug 4.5 03:48:21 50° ENE 03:48:27 50° ENE 03:53:01 10° N visible
27 Aug 5.5 05:27:02 15° W 05:27:02 15° W 05:29:10 10° NW visible
